When you browse on this site, cookies collect data to enhance your experience and personalize the content and advertising you see.
Visit our Privacy Policy to learn more. By continuing to use the site, you agree to this use of cookies and data.
  • In Schweiz
  • Länderverzeichnis
  • Für 7 Tage
  • Wassertemperatur
  • Satellitenkarten
  • Wetterkarte
  • Widgets
  • user-avatar
    Anmelden

    Stündliche Wetter Kchulna

    Heute, 18 Juni, Dienstag

    Zeit Temperatur Niederschläge Wind Luftdruck Luftfeuchtigkeit
    00:00 +32°C° 0 mm 1 m/S 749 mmHg 79%
    01:00 +32°C° 0 mm 1 m/S 748 mmHg 80%
    02:00 +32°C° 0 mm 1 m/S 748 mmHg 80%
    03:00 +31°C° 0 mm 2 m/S 747 mmHg 81%
    04:00 +31°C° 0.1 mm 2 m/S 748 mmHg 81%
    05:00 +31°C° 0.1 mm 3 m/S 748 mmHg 81%
    06:00 +31°C° 0.1 mm 3 m/S 748 mmHg 80%
    07:00 +34°C° 0 mm 3 m/S 748 mmHg 72%
    08:00 +36°C° 0 mm 3 m/S 748 mmHg 64%
    09:00 +37°C° 0 mm 3 m/S 749 mmHg 56%
    10:00 +39°C° 0 mm 2 m/S 748 mmHg 50%
    11:00 +41°C° 0 mm 1 m/S 748 mmHg 44%
    12:00 +40°C° 0 mm 0 m/S 748 mmHg 38%
    13:00 +43°C° 0 mm 1 m/S 747 mmHg 37%
    14:00 +43°C° 0 mm 2 m/S 747 mmHg 36%
    15:00 +44°C° 0 mm 3 m/S 746 mmHg 36%
    16:00 +42°C° 0 mm 4 m/S 746 mmHg 41%
    17:00 +41°C° 0 mm 4 m/S 746 mmHg 47%
    18:00 +40°C° 0 mm 5 m/S 746 mmHg 53%
    19:00 +37°C° 0 mm 5 m/S 746 mmHg 58%
    20:00 +36°C° 0 mm 5 m/S 747 mmHg 64%
    21:00 +34°C° 0 mm 4 m/S 747 mmHg 69%
    22:00 +34°C° 0 mm 4 m/S 748 mmHg 71%
    23:00 +34°C° 0 mm 4 m/S 748 mmHg 73%

    Morgen, 19 Juni, Mittwoch

    Zeit Temperatur Niederschläge Wind Luftdruck Luftfeuchtigkeit
    00:00 +33°C° 0 mm 5 m/S 749 mmHg 74%
    01:00 +33°C° 0 mm 4 m/S 748 mmHg 75%
    02:00 +33°C° 0 mm 3 m/S 748 mmHg 75%
    03:00 +33°C° 0 mm 3 m/S 748 mmHg 76%
    04:00 +32°C° 0 mm 2 m/S 748 mmHg 76%
    05:00 +32°C° 0 mm 2 m/S 748 mmHg 77%
    06:00 +32°C° 0 mm 1 m/S 748 mmHg 77%
    07:00 +35°C° 0 mm 2 m/S 748 mmHg 69%
    08:00 +37°C° 0 mm 2 m/S 748 mmHg 61%
    09:00 +38°C° 0 mm 3 m/S 749 mmHg 53%
    10:00 +40°C° 0 mm 3 m/S 748 mmHg 49%
    11:00 +42°C° 0 mm 4 m/S 748 mmHg 45%
    12:00 +43°C° 0 mm 4 m/S 748 mmHg 41%
    13:00 +42°C° 0 mm 5 m/S 748 mmHg 43%
    14:00 +41°C° 0 mm 5 m/S 747 mmHg 46%
    15:00 +41°C° 0 mm 5 m/S 747 mmHg 49%
    16:00 +40°C° 0.4 mm 5 m/S 747 mmHg 52%
    17:00 +38°C° 0.4 mm 4 m/S 747 mmHg 54%
    18:00 +37°C° 0.4 mm 4 m/S 747 mmHg 57%
    19:00 +36°C° 0.2 mm 4 m/S 748 mmHg 60%
    20:00 +35°C° 0.2 mm 4 m/S 748 mmHg 64%
    21:00 +34°C° 0.2 mm 4 m/S 749 mmHg 68%
    22:00 +34°C° 0 mm 4 m/S 749 mmHg 70%
    23:00 +33°C° 0 mm 3 m/S 749 mmHg 73%

    übermorgen, 20 Juni, Donnerstag

    Zeit Temperatur Niederschläge Wind Luftdruck Luftfeuchtigkeit
    00:00 +32°C° 0 mm 2 m/S 749 mmHg 75%
    01:00 +33°C° 0 mm 3 m/S 749 mmHg 76%
    02:00 +31°C° 0 mm 3 m/S 748 mmHg 76%
    03:00 +31°C° 0 mm 3 m/S 748 mmHg 77%
    04:00 +31°C° 0 mm 3 m/S 748 mmHg 78%
    05:00 +31°C° 0 mm 3 m/S 749 mmHg 79%
    06:00 +31°C° 0 mm 2 m/S 749 mmHg 80%
    07:00 +33°C° 0 mm 3 m/S 749 mmHg 74%
    08:00 +35°C° 0 mm 3 m/S 750 mmHg 69%
    09:00 +36°C° 0 mm 4 m/S 750 mmHg 63%
    10:00 +37°C° 0 mm 4 m/S 750 mmHg 56%
    11:00 +39°C° 0 mm 3 m/S 750 mmHg 50%
    12:00 +40°C° 0 mm 3 m/S 749 mmHg 43%
    13:00 +42°C° 0 mm 3 m/S 749 mmHg 42%
    14:00 +42°C° 0 mm 3 m/S 748 mmHg 40%
    15:00 +43°C° 0 mm 3 m/S 747 mmHg 39%
    16:00 +40°C° 0 mm 3 m/S 747 mmHg 43%
    17:00 +40°C° 0 mm 4 m/S 747 mmHg 48%
    18:00 +38°C° 0 mm 4 m/S 747 mmHg 52%
    19:00 +37°C° 0 mm 4 m/S 748 mmHg 58%
    20:00 +35°C° 0 mm 4 m/S 748 mmHg 63%
    21:00 +34°C° 0 mm 5 m/S 749 mmHg 68%
    22:00 +34°C° 0 mm 4 m/S 749 mmHg 70%
    23:00 +33°C° 0 mm 4 m/S 749 mmHg 72%

    21 Juni, Freitag

    Zeit Temperatur Niederschläge Wind Luftdruck Luftfeuchtigkeit
    00:00 +33°C° 0 mm 4 m/S 750 mmHg 74%
    01:00 +33°C° 0 mm 4 m/S 749 mmHg 74%
    02:00 +31°C° 0 mm 3 m/S 749 mmHg 74%
    03:00 +31°C° 0 mm 3 m/S 749 mmHg 75%
    04:00 +31°C° 0 mm 3 m/S 749 mmHg 77%
    05:00 +31°C° 0 mm 3 m/S 749 mmHg 79%
    06:00 +31°C° 0 mm 3 m/S 749 mmHg 81%
    07:00 +34°C° 0 mm 3 m/S 750 mmHg 72%
    08:00 +35°C° 0 mm 3 m/S 750 mmHg 64%
    09:00 +37°C° 0 mm 3 m/S 750 mmHg 56%
    10:00 +38°C° 0 mm 3 m/S 750 mmHg 52%
    11:00 +39°C° 0 mm 3 m/S 750 mmHg 48%
    12:00 +40°C° 0 mm 3 m/S 749 mmHg 45%
    13:00 +40°C° 0 mm 3 m/S 749 mmHg 44%
    14:00 +40°C° 0 mm 3 m/S 748 mmHg 43%
    15:00 +41°C° 0 mm 4 m/S 747 mmHg 43%
    16:00 +40°C° 0 mm 4 m/S 747 mmHg 45%
    17:00 +40°C° 0 mm 4 m/S 747 mmHg 47%
    18:00 +38°C° 0 mm 4 m/S 747 mmHg 49%
    19:00 +37°C° 0 mm 4 m/S 748 mmHg 54%
    20:00 +35°C° 0 mm 4 m/S 748 mmHg 59%
    21:00 +34°C° 0 mm 5 m/S 749 mmHg 63%
    22:00 +34°C° 0 mm 4 m/S 749 mmHg 66%
    23:00 +33°C° 0 mm 3 m/S 749 mmHg 68%

    22 Juni, Samstag

    Zeit Temperatur Niederschläge Wind Luftdruck Luftfeuchtigkeit
    00:00 +33°C° 0 mm 3 m/S 750 mmHg 70%
    01:00 +33°C° 0 mm 3 m/S 749 mmHg 71%
    02:00 +32°C° 0 mm 2 m/S 749 mmHg 73%
    03:00 +31°C° 0 mm 2 m/S 749 mmHg 74%
    04:00 +31°C° 0 mm 2 m/S 749 mmHg 75%
    05:00 +31°C° 0 mm 2 m/S 749 mmHg 76%
    06:00 +31°C° 0 mm 2 m/S 749 mmHg 78%
    07:00 +34°C° 0 mm 2 m/S 750 mmHg 70%
    08:00 +35°C° 0 mm 2 m/S 750 mmHg 63%
    09:00 +37°C° 0 mm 3 m/S 750 mmHg 56%
    10:00 +38°C° 0 mm 3 m/S 750 mmHg 53%
    11:00 +39°C° 0 mm 3 m/S 750 mmHg 49%
    12:00 +40°C° 0 mm 3 m/S 749 mmHg 45%
    13:00 +41°C° 0 mm 4 m/S 749 mmHg 46%
    14:00 +41°C° 0 mm 4 m/S 748 mmHg 46%
    15:00 +40°C° 0 mm 4 m/S 747 mmHg 47%
    16:00 +40°C° 0 mm 4 m/S 747 mmHg 49%
    17:00 +38°C° 0 mm 4 m/S 747 mmHg 51%
    18:00 +37°C° 0 mm 4 m/S 747 mmHg 53%
    19:00 +36°C° 0 mm 4 m/S 747 mmHg 58%
    20:00 +35°C° 0 mm 4 m/S 748 mmHg 63%
    21:00 +34°C° 0 mm 4 m/S 749 mmHg 67%
    22:00 +34°C° 0 mm 4 m/S 749 mmHg 69%
    23:00 +33°C° 0 mm 4 m/S 749 mmHg 72%

    23 Juni, Sonntag

    Zeit Temperatur Niederschläge Wind Luftdruck Luftfeuchtigkeit
    00:00 +33°C° 0 mm 4 m/S 749 mmHg 74%
    01:00 +33°C° 0 mm 3 m/S 749 mmHg 75%
    02:00 +31°C° 0 mm 3 m/S 748 mmHg 76%
    03:00 +31°C° 0 mm 2 m/S 748 mmHg 77%
    04:00 +31°C° 0 mm 2 m/S 748 mmHg 78%
    05:00 +31°C° 0 mm 2 m/S 749 mmHg 78%
    06:00 +31°C° 0 mm 2 m/S 749 mmHg 79%
    07:00 +34°C° 0 mm 3 m/S 749 mmHg 71%
    08:00 +35°C° 0 mm 3 m/S 749 mmHg 64%
    09:00 +37°C° 0 mm 4 m/S 750 mmHg 56%
    10:00 +38°C° 0 mm 4 m/S 749 mmHg 52%
    11:00 +40°C° 0 mm 4 m/S 749 mmHg 49%
    12:00 +41°C° 0 mm 4 m/S 749 mmHg 45%
    13:00 +41°C° 0 mm 5 m/S 748 mmHg 44%
    14:00 +41°C° 0 mm 5 m/S 747 mmHg 44%
    15:00 +41°C° 0 mm 5 m/S 746 mmHg 43%
    16:00 +40°C° 0 mm 5 m/S 746 mmHg 46%
    17:00 +39°C° 0 mm 5 m/S 746 mmHg 49%
    18:00 +39°C° 0 mm 5 m/S 746 mmHg 52%
    19:00 +36°C° 0 mm 5 m/S 747 mmHg 58%
    20:00 +35°C° 0 mm 5 m/S 748 mmHg 64%
    21:00 +34°C° 0 mm 5 m/S 748 mmHg 70%
    22:00 +33°C° 0 mm 4 m/S 748 mmHg 71%
    23:00 +33°C° 0 mm 4 m/S 749 mmHg 73%
    Mehr zeigen